Disclaimer

Please do not use the information listed here in-flight or in-navigation, as they are not provided to us by the airports but are provided by volunteers, so they might be outdated.

Search


Regions


Airport information page

Radio informations:
Tower (TWR) - 118.3 MHz
DE ICING - 135.225 MHz
LANGEN INFO - 129.875 MHz
Director (DIR) - 119.4 MHz
LANGEN RADAR - 128.55 MHz

Airport informations:
Latitude: 51° 17' 22.03" N
Longitude: 006° 46' 00.39" E
Elevation: 147 feet - 45 meters
Operating hours: 24 hour operations
Operating agency: Civil government, landing fees and diplomatic clearance may be required
Timezone: UTC+1(+2DT) - Last Sunday in March to last Sunday in October
Fuel: Jet A1, without icing nhibitor.

Runway information:
05R/23L - 9842 x 148 feet< - >3000 x 45 meters
05L/23R - 8858 x 148 feet< - >2700 x 45 meters

Recent METARs:
EDDL 221950Z 15015KT 3400 -SN FEW007 BKN009 OVC025 M02/M04 Q1002 R05L/290195 R05R/290195 NOSIG
EDDL 222020Z 15014KT 3600 -SN FEW008 SCT010 BKN025 M02/M04 Q1002 R05L/290195 R05R/290195 TEMPO 2500 BKN009
EDDL 222050Z 15014KT 2700 -SN FEW008 SCT010 OVC025 M02/M04 Q1001 R05L/290195 R05R/290195 TEMPO BKN009

Airport on the map: